JFA45T LFLI-LFPB

Flight info

Callsign JFA45T
Flight time 1h 6m
Altitude 16000
Route MOREG/N284F160IFR L47 SIROD L615 DJL
Aircraft PC12/L-SBDFGRWYZ/LB1

Departure

Time 2026-04-18 09:17
Airport Annemasse Airfield (LFLI)

Arrival

Time 2026-04-18 10:23
Airport Paris-Le Bourget International Airport (LFPB)
Time Latitude Longitude Altitude Speed Heading
2026-04-18 09:09 46.19551 6.26360 1582 ft 0 kts 60°
2026-04-18 09:12 46.19555 6.26370 1583 ft 3 kts 60°
2026-04-18 09:12 46.19554 6.26405 1583 ft 6 kts 143°
2026-04-18 09:12 46.19531 6.26465 1585 ft 7 kts 91°
2026-04-18 09:12 46.19489 6.26519 1587 ft 12 kts 153°
2026-04-18 09:13 46.19407 6.26581 1587 ft 14 kts 150°
2026-04-18 09:13 46.19357 6.26675 1591 ft 11 kts 117°
2026-04-18 09:13 46.19323 6.26768 1594 ft 10 kts 117°
2026-04-18 09:13 46.19291 6.26858 1598 ft 10 kts 117°
2026-04-18 09:14 46.19260 6.26943 1606 ft 10 kts 117°
2026-04-18 09:14 46.19225 6.27039 1609 ft 12 kts 117°
2026-04-18 09:14 46.19180 6.27164 1613 ft 15 kts 117°
2026-04-18 09:14 46.19128 6.27307 1621 ft 17 kts 118°
2026-04-18 09:15 46.19076 6.27455 1627 ft 16 kts 116°
2026-04-18 09:15 46.19031 6.27576 1627 ft 12 kts 117°
2026-04-18 09:15 46.18976 6.27621 1629 ft 10 kts 209°
2026-04-18 09:15 46.18934 6.27587 1630 ft 0 kts 219°
2026-04-18 09:16 46.18933 6.27564 1631 ft 5 kts 303°
2026-04-18 09:16 46.19038 6.27279 1626 ft 62 kts 297°
2026-04-18 09:16 46.19300 6.26551 1672 ft 94 kts 302°
2026-04-18 09:16 46.19651 6.25678 1928 ft 106 kts 305°
2026-04-18 09:17 46.20033 6.24800 2356 ft 100 kts 304°
2026-04-18 09:17 46.20374 6.23921 2685 ft 105 kts 291°
2026-04-18 09:17 46.20151 6.22872 2854 ft 130 kts 218°
2026-04-18 09:17 46.19245 6.22788 2919 ft 139 kts 157°
2026-04-18 09:18 46.18340 6.23491 2717 ft 157 kts 148°
2026-04-18 09:18 46.17416 6.24360 2621 ft 157 kts 136°
2026-04-18 09:18 46.16735 6.25584 2514 ft 158 kts 120°
2026-04-18 09:18 46.16209 6.26944 2566 ft 152 kts 116°
2026-04-18 09:19 46.15707 6.28289 2687 ft 151 kts 115°
2026-04-18 09:19 46.15236 6.29626 3054 ft 149 kts 115°
2026-04-18 09:19 46.14804 6.30915 3555 ft 136 kts 110°
2026-04-18 09:19 46.14873 6.32159 3974 ft 126 kts 50°
2026-04-18 09:20 46.15634 6.32563 4442 ft 120 kts 348°
2026-04-18 09:20 46.16382 6.32100 4794 ft 117 kts 316°
2026-04-18 09:20 46.16962 6.31221 4924 ft 132 kts 315°
2026-04-18 09:20 46.17692 6.30187 5154 ft 159 kts 317°
2026-04-18 09:21 46.18501 6.29082 5713 ft 160 kts 318°
2026-04-18 09:21 46.19317 6.27976 6261 ft 162 kts 317°
2026-04-18 09:21 46.20142 6.26859 6756 ft 163 kts 317°
2026-04-18 09:21 46.20971 6.25735 7261 ft 163 kts 317°
2026-04-18 09:22 46.21788 6.24628 7760 ft 164 kts 317°
2026-04-18 09:22 46.22617 6.23500 8262 ft 165 kts 317°
2026-04-18 09:22 46.23453 6.22365 8800 ft 165 kts 317°
2026-04-18 09:22 46.24293 6.21224 9321 ft 166 kts 317°
2026-04-18 09:23 46.25135 6.20078 9874 ft 167 kts 316°
2026-04-18 09:23 46.25986 6.18921 10361 ft 168 kts 316°
2026-04-18 09:23 46.26838 6.17762 10858 ft 168 kts 316°
2026-04-18 09:23 46.27690 6.16600 11420 ft 169 kts 316°
2026-04-18 09:24 46.28548 6.15431 12019 ft 170 kts 316°
2026-04-18 09:24 46.29409 6.14257 12617 ft 171 kts 316°
2026-04-18 09:24 46.29995 6.13457 12992 ft 172 kts 316°
2026-04-18 09:24 46.30856 6.12284 13540 ft 173 kts 316°
2026-04-18 09:25 46.31736 6.11083 14104 ft 174 kts 316°
2026-04-18 09:25 46.32622 6.09874 14625 ft 175 kts 316°
2026-04-18 09:25 46.33511 6.08660 15161 ft 177 kts 316°
2026-04-18 09:25 46.34406 6.07437 15675 ft 177 kts 315°
2026-04-18 09:26 46.35305 6.06207 16164 ft 180 kts 315°
2026-04-18 09:26 46.36269 6.04889 16204 ft 201 kts 315°
2026-04-18 09:26 46.37326 6.03444 16216 ft 217 kts 315°
2026-04-18 09:26 46.38483 6.01944 16219 ft 230 kts 322°
2026-04-18 09:27 46.39974 6.00963 16209 ft 242 kts 343°
2026-04-18 09:27 46.41677 6.00776 16215 ft 250 kts 358°
2026-04-18 09:27 46.43441 6.00855 16210 ft 256 kts 359°
2026-04-18 09:27 46.45234 6.00939 16211 ft 259 kts 359°
2026-04-18 09:28 46.47038 6.01005 16209 ft 260 kts 358°
2026-04-18 09:28 46.48854 6.01068 16206 ft 262 kts 358°
2026-04-18 09:28 46.50681 6.01135 16203 ft 262 kts 358°
2026-04-18 09:28 46.52505 6.01204 16207 ft 263 kts 359°
2026-04-18 09:29 46.54335 6.01272 16205 ft 263 kts 359°
2026-04-18 09:29 46.56174 6.01340 16208 ft 265 kts 359°
2026-04-18 09:29 46.57992 6.01408 16203 ft 264 kts 359°
2026-04-18 09:29 46.59828 6.01476 16210 ft 264 kts 358°
2026-04-18 09:30 46.61665 6.01544 16205 ft 265 kts 358°
2026-04-18 09:30 46.63511 6.01612 16206 ft 265 kts 358°
2026-04-18 09:30 46.65359 6.01681 16207 ft 265 kts 358°
2026-04-18 09:30 46.67202 6.01749 16214 ft 265 kts 358°
2026-04-18 09:31 46.69053 6.01817 16205 ft 266 kts 358°
2026-04-18 09:31 46.70891 6.01727 16203 ft 263 kts 348°
2026-04-18 09:31 46.72614 6.00932 16205 ft 259 kts 332°
2026-04-18 09:31 46.74099 5.99490 16207 ft 256 kts 316°
2026-04-18 09:32 46.75299 5.97593 16207 ft 254 kts 309°
2026-04-18 09:32 46.76458 5.95642 16205 ft 254 kts 309°
2026-04-18 09:32 46.77623 5.93692 16207 ft 255 kts 309°
2026-04-18 09:32 46.78787 5.91741 16208 ft 255 kts 309°
2026-04-18 09:33 46.79953 5.89778 16207 ft 256 kts 309°
2026-04-18 09:33 46.81119 5.87817 16204 ft 255 kts 309°
2026-04-18 09:33 46.82264 5.85888 16203 ft 255 kts 309°
2026-04-18 09:33 46.83426 5.83929 16202 ft 255 kts 309°
2026-04-18 09:34 46.84586 5.81972 16203 ft 255 kts 309°
2026-04-18 09:34 46.85749 5.80009 16203 ft 255 kts 309°
2026-04-18 09:34 46.86910 5.78048 16205 ft 255 kts 309°
2026-04-18 09:34 46.88069 5.76094 16210 ft 255 kts 309°
2026-04-18 09:35 46.89237 5.74134 16212 ft 256 kts 309°
2026-04-18 09:35 46.90406 5.72171 16214 ft 256 kts 309°
2026-04-18 09:35 46.91571 5.70208 16211 ft 256 kts 309°
2026-04-18 09:35 46.92742 5.68235 16212 ft 256 kts 309°
2026-04-18 09:36 46.93908 5.66270 16214 ft 256 kts 309°
2026-04-18 09:36 46.95077 5.64298 16213 ft 256 kts 309°
2026-04-18 09:36 46.96243 5.62331 16214 ft 256 kts 309°
2026-04-18 09:36 46.97408 5.60363 16220 ft 256 kts 309°
2026-04-18 09:37 46.98571 5.58396 16219 ft 256 kts 309°
2026-04-18 09:37 46.99738 5.56418 16214 ft 256 kts 309°
2026-04-18 09:37 47.00891 5.54466 16215 ft 256 kts 309°
2026-04-18 09:37 47.02057 5.52494 16217 ft 256 kts 309°
2026-04-18 09:38 47.03223 5.50516 16218 ft 257 kts 309°
2026-04-18 09:38 47.04391 5.48533 16219 ft 256 kts 308°
2026-04-18 09:38 47.05554 5.46558 16218 ft 256 kts 308°
2026-04-18 09:38 47.06720 5.44575 16216 ft 256 kts 308°
2026-04-18 09:39 47.07880 5.42600 16207 ft 255 kts 308°
2026-04-18 09:39 47.09038 5.40628 16212 ft 255 kts 308°
2026-04-18 09:39 47.10195 5.38660 16211 ft 256 kts 308°
2026-04-18 09:39 47.11361 5.36673 16211 ft 255 kts 308°
2026-04-18 09:40 47.12523 5.34690 16217 ft 255 kts 308°
2026-04-18 09:40 47.13680 5.32714 16212 ft 255 kts 308°
2026-04-18 09:40 47.14839 5.30735 16213 ft 255 kts 308°
2026-04-18 09:40 47.15995 5.28758 16212 ft 255 kts 308°
2026-04-18 09:41 47.17149 5.26784 16213 ft 254 kts 308°
2026-04-18 09:41 47.18302 5.24809 16214 ft 255 kts 308°
2026-04-18 09:41 47.19458 5.22828 16210 ft 255 kts 308°
2026-04-18 09:41 47.20614 5.20845 16214 ft 255 kts 308°
2026-04-18 09:42 47.21755 5.18888 16220 ft 255 kts 308°
2026-04-18 09:42 47.22911 5.16903 16221 ft 255 kts 308°
2026-04-18 09:42 47.24065 5.14921 16221 ft 255 kts 308°
2026-04-18 09:42 47.25220 5.12934 16223 ft 255 kts 308°
2026-04-18 09:43 47.26378 5.10940 16215 ft 255 kts 308°
2026-04-18 09:43 47.27627 5.09093 16220 ft 256 kts 319°
2026-04-18 09:43 47.29045 5.07501 16221 ft 257 kts 319°
2026-04-18 09:43 47.30467 5.05903 16222 ft 256 kts 319°
2026-04-18 09:44 47.31879 5.04303 16221 ft 257 kts 319°
2026-04-18 09:44 47.33296 5.02697 16216 ft 256 kts 319°
2026-04-18 09:44 47.34692 5.01115 16223 ft 257 kts 319°
2026-04-18 09:44 47.36113 4.99505 16217 ft 257 kts 319°
2026-04-18 09:45 47.37535 4.97893 16214 ft 257 kts 319°
2026-04-18 09:45 47.38952 4.96284 16208 ft 257 kts 319°
2026-04-18 09:45 47.40366 4.94678 16216 ft 256 kts 319°
2026-04-18 09:45 47.41783 4.93067 16210 ft 258 kts 319°
2026-04-18 09:46 47.43204 4.91450 16217 ft 257 kts 319°
2026-04-18 09:46 47.44623 4.89836 16218 ft 257 kts 319°
2026-04-18 09:46 47.46019 4.88245 16216 ft 257 kts 319°
2026-04-18 09:46 47.47457 4.86605 16207 ft 257 kts 319°
2026-04-18 09:47 47.48852 4.85014 16212 ft 257 kts 319°
2026-04-18 09:47 47.50266 4.83401 16211 ft 256 kts 319°
2026-04-18 09:47 47.51679 4.81786 16219 ft 256 kts 319°
2026-04-18 09:47 47.53090 4.80172 16217 ft 257 kts 319°
2026-04-18 09:48 47.54503 4.78556 16205 ft 257 kts 319°
2026-04-18 09:48 47.55917 4.76939 16209 ft 257 kts 319°
2026-04-18 09:48 47.57329 4.75321 16205 ft 257 kts 319°
2026-04-18 09:48 47.58745 4.73697 16208 ft 257 kts 319°
2026-04-18 09:49 47.60155 4.72081 16207 ft 256 kts 319°
2026-04-18 09:49 47.61563 4.70463 16209 ft 256 kts 319°
2026-04-18 09:49 47.62975 4.68841 16211 ft 257 kts 319°
2026-04-18 09:49 47.64387 4.67218 16210 ft 256 kts 319°
2026-04-18 09:50 47.65776 4.65619 16210 ft 257 kts 319°
2026-04-18 09:50 47.67189 4.63993 16212 ft 257 kts 319°
2026-04-18 09:50 47.68601 4.62367 16214 ft 257 kts 319°
2026-04-18 09:50 47.70016 4.60736 16211 ft 258 kts 319°
2026-04-18 09:51 47.71432 4.59102 16205 ft 257 kts 319°
2026-04-18 09:51 47.72840 4.57476 16206 ft 256 kts 319°
2026-04-18 09:51 47.74250 4.55849 16210 ft 257 kts 319°
2026-04-18 09:51 47.75660 4.54217 16207 ft 257 kts 319°
2026-04-18 09:52 47.77073 4.52585 16207 ft 256 kts 319°
2026-04-18 09:52 47.78479 4.50959 16213 ft 257 kts 319°
2026-04-18 09:52 47.79886 4.49328 16209 ft 257 kts 318°
2026-04-18 09:52 47.81296 4.47692 16206 ft 256 kts 318°
2026-04-18 09:53 47.82701 4.46063 16206 ft 256 kts 318°
2026-04-18 09:53 47.84107 4.44431 16210 ft 257 kts 318°
2026-04-18 09:53 47.85515 4.42796 16210 ft 256 kts 318°
2026-04-18 09:53 47.86920 4.41162 16211 ft 257 kts 318°
2026-04-18 09:54 47.88325 4.39527 16211 ft 257 kts 318°
2026-04-18 09:54 47.89736 4.37884 16217 ft 257 kts 318°
2026-04-18 09:54 47.91150 4.36237 16212 ft 258 kts 318°
2026-04-18 09:54 47.92545 4.34612 16214 ft 258 kts 318°
2026-04-18 09:55 47.93972 4.32947 16208 ft 257 kts 318°
2026-04-18 09:55 47.95369 4.31316 16212 ft 257 kts 318°
2026-04-18 09:55 47.96778 4.29670 16210 ft 258 kts 318°
2026-04-18 09:55 47.98193 4.28015 16206 ft 257 kts 318°
2026-04-18 09:56 47.99601 4.26369 16210 ft 257 kts 318°
2026-04-18 09:56 48.01010 4.24716 16205 ft 257 kts 318°
2026-04-18 09:56 48.02418 4.23065 16208 ft 257 kts 318°
2026-04-18 09:56 48.03827 4.21413 16208 ft 257 kts 318°
2026-04-18 09:57 48.05238 4.19758 16213 ft 257 kts 317°
2026-04-18 09:57 48.06644 4.18108 16212 ft 257 kts 317°
2026-04-18 09:57 48.08048 4.16458 16212 ft 256 kts 317°
2026-04-18 09:57 48.09436 4.14825 16115 ft 260 kts 317°
2026-04-18 09:58 48.10876 4.13128 15841 ft 266 kts 318°
2026-04-18 09:58 48.12340 4.11410 15567 ft 268 kts 318°
2026-04-18 09:58 48.13811 4.09680 15298 ft 269 kts 318°
2026-04-18 09:58 48.15284 4.07944 15035 ft 270 kts 318°
2026-04-18 09:59 48.16764 4.06198 14765 ft 270 kts 318°
2026-04-18 09:59 48.18240 4.04459 14499 ft 269 kts 318°
2026-04-18 09:59 48.19705 4.02731 14241 ft 268 kts 318°
2026-04-18 10:00 48.22619 3.99283 13689 ft 265 kts 318°
2026-04-18 10:00 48.24065 3.97571 13393 ft 264 kts 318°
2026-04-18 10:00 48.25457 3.95797 13219 ft 256 kts 310°
2026-04-18 10:00 48.26661 3.93888 13218 ft 249 kts 310°
2026-04-18 10:01 48.27846 3.92017 13219 ft 246 kts 310°
2026-04-18 10:01 48.29027 3.90165 13214 ft 244 kts 310°
2026-04-18 10:01 48.30192 3.88332 13219 ft 243 kts 310°
2026-04-18 10:01 48.31355 3.86497 13215 ft 242 kts 310°
2026-04-18 10:02 48.32514 3.84668 13213 ft 241 kts 310°
2026-04-18 10:02 48.33692 3.82806 12830 ft 252 kts 310°
2026-04-18 10:02 48.34884 3.80930 12355 ft 250 kts 310°
2026-04-18 10:02 48.36080 3.79047 11869 ft 247 kts 310°
2026-04-18 10:03 48.37258 3.77181 11396 ft 246 kts 310°
2026-04-18 10:03 48.38433 3.75316 10935 ft 245 kts 310°
2026-04-18 10:03 48.39608 3.73456 10507 ft 244 kts 310°
2026-04-18 10:03 48.40767 3.71616 10073 ft 241 kts 310°
2026-04-18 10:04 48.41915 3.69794 9598 ft 239 kts 310°
2026-04-18 10:04 48.43059 3.67974 9132 ft 238 kts 310°
2026-04-18 10:04 48.44195 3.66173 8669 ft 237 kts 311°
2026-04-18 10:04 48.45322 3.64382 8323 ft 233 kts 311°
2026-04-18 10:05 48.46431 3.62616 7999 ft 231 kts 311°
2026-04-18 10:05 48.47530 3.60866 7766 ft 229 kts 311°
2026-04-18 10:05 48.48621 3.59126 7568 ft 228 kts 312°
2026-04-18 10:05 48.49708 3.57394 7378 ft 228 kts 312°
2026-04-18 10:06 48.50798 3.55654 7195 ft 228 kts 312°
2026-04-18 10:06 48.51855 3.53968 7199 ft 220 kts 312°
2026-04-18 10:06 48.52895 3.52309 7190 ft 216 kts 312°
2026-04-18 10:06 48.53925 3.50661 7193 ft 216 kts 312°
2026-04-18 10:07 48.54953 3.49017 7193 ft 216 kts 312°
2026-04-18 10:07 48.55990 3.47356 7188 ft 218 kts 312°
2026-04-18 10:07 48.57036 3.45683 7188 ft 220 kts 312°
2026-04-18 10:07 48.58091 3.43991 7196 ft 222 kts 312°
2026-04-18 10:08 48.59146 3.42285 7201 ft 222 kts 312°
2026-04-18 10:08 48.60207 3.40565 7198 ft 225 kts 312°
2026-04-18 10:08 48.61276 3.38832 7203 ft 225 kts 312°
2026-04-18 10:08 48.62344 3.37100 7206 ft 225 kts 312°
2026-04-18 10:09 48.63413 3.35364 7197 ft 225 kts 312°
2026-04-18 10:09 48.64485 3.33627 7194 ft 226 kts 312°
2026-04-18 10:09 48.65544 3.31913 7202 ft 227 kts 312°
2026-04-18 10:09 48.66628 3.30157 7200 ft 228 kts 311°
2026-04-18 10:10 48.67730 3.28372 7199 ft 230 kts 312°
2026-04-18 10:10 48.68803 3.26632 7193 ft 229 kts 312°
2026-04-18 10:10 48.69889 3.24873 7193 ft 228 kts 312°
2026-04-18 10:10 48.70970 3.23123 7195 ft 228 kts 312°
2026-04-18 10:11 48.72053 3.21372 7157 ft 229 kts 312°
2026-04-18 10:11 48.73157 3.19584 7038 ft 234 kts 312°
2026-04-18 10:11 48.74265 3.17784 6923 ft 234 kts 312°
2026-04-18 10:11 48.75003 3.16582 6836 ft 235 kts 312°
2026-04-18 10:12 48.76116 3.14765 6717 ft 236 kts 312°
2026-04-18 10:12 48.77235 3.12928 6545 ft 237 kts 312°
2026-04-18 10:12 48.78367 3.11111 6346 ft 239 kts 315°
2026-04-18 10:12 48.79647 3.09477 6129 ft 240 kts 320°
2026-04-18 10:13 48.80970 3.07936 5924 ft 240 kts 321°
2026-04-18 10:13 48.82303 3.06408 5715 ft 241 kts 322°
2026-04-18 10:13 48.83637 3.04882 5518 ft 240 kts 322°
2026-04-18 10:13 48.84969 3.03354 5329 ft 242 kts 322°
2026-04-18 10:14 48.86310 3.01813 5115 ft 238 kts 322°
2026-04-18 10:14 48.87602 3.00329 4926 ft 228 kts 322°
2026-04-18 10:14 48.88825 2.98926 4721 ft 218 kts 322°
2026-04-18 10:14 48.90014 2.97565 4513 ft 210 kts 322°
2026-04-18 10:15 48.91127 2.96299 4293 ft 189 kts 322°
2026-04-18 10:15 48.92152 2.95140 4093 ft 186 kts 322°
2026-04-18 10:15 48.93214 2.93934 3897 ft 195 kts 321°
2026-04-18 10:15 48.94049 2.92332 3713 ft 197 kts 295°
2026-04-18 10:16 48.94623 2.90460 3526 ft 191 kts 292°
2026-04-18 10:16 48.95151 2.88664 3317 ft 181 kts 292°
2026-04-18 10:16 48.95670 2.86891 3108 ft 185 kts 292°
2026-04-18 10:16 48.96195 2.85094 2988 ft 183 kts 292°
2026-04-18 10:17 48.96705 2.83354 2990 ft 176 kts 292°
2026-04-18 10:17 48.97202 2.81662 2980 ft 170 kts 292°
2026-04-18 10:17 48.97550 2.79962 2992 ft 172 kts 282°
2026-04-18 10:17 48.97867 2.78163 2995 ft 179 kts 283°
2026-04-18 10:18 48.98134 2.76293 3002 ft 182 kts 271°
2026-04-18 10:18 48.98106 2.74365 2999 ft 186 kts 264°
2026-04-18 10:18 48.98021 2.72418 3002 ft 184 kts 264°
2026-04-18 10:18 48.97915 2.70483 3002 ft 183 kts 263°
2026-04-18 10:19 48.97807 2.68545 3007 ft 184 kts 265°
2026-04-18 10:19 48.97706 2.66600 2994 ft 184 kts 263°
2026-04-18 10:19 48.97599 2.64635 2788 ft 189 kts 262°
2026-04-18 10:19 48.97493 2.62667 2546 ft 180 kts 263°
2026-04-18 10:20 48.97389 2.60814 2302 ft 174 kts 263°
2026-04-18 10:20 48.97285 2.58943 2063 ft 181 kts 263°
2026-04-18 10:20 48.97180 2.57029 1811 ft 178 kts 263°
2026-04-18 10:20 48.97084 2.55221 1588 ft 166 kts 263°
2026-04-18 10:21 48.96993 2.53522 1357 ft 153 kts 263°
2026-04-18 10:21 48.96914 2.52029 1181 ft 132 kts 263°
2026-04-18 10:21 48.96843 2.50731 1012 ft 112 kts 265°
2026-04-18 10:21 48.96787 2.49701 881 ft 90 kts 266°
2026-04-18 10:22 48.96729 2.48786 770 ft 85 kts 266°
2026-04-18 10:22 48.96678 2.47887 654 ft 84 kts 270°
2026-04-18 10:22 48.96629 2.47008 537 ft 84 kts 271°
2026-04-18 10:22 48.96584 2.46115 438 ft 85 kts 269°
2026-04-18 10:23 48.96539 2.45230 301 ft 83 kts 270°
2026-04-18 10:23 48.96495 2.44357 155 ft 77 kts 272°
2026-04-18 10:23 48.96459 2.43660 146 ft 57 kts 265°
2026-04-18 10:23 48.96430 2.43200 146 ft 12 kts 232°
2026-04-18 10:24 48.96353 2.43167 145 ft 13 kts 176°
2026-04-18 10:24 48.96279 2.43192 146 ft 0 kts 169°
2026-04-18 10:25 48.96271 2.43194 146 ft 5 kts 169°
2026-04-18 10:25 48.96205 2.43215 146 ft 12 kts 167°
2026-04-18 10:26 48.96112 2.43249 146 ft 15 kts 166°
2026-04-18 10:26 48.96006 2.43285 147 ft 17 kts 167°
2026-04-18 10:26 48.95894 2.43359 147 ft 18 kts 128°
2026-04-18 10:26 48.95841 2.43524 147 ft 18 kts 116°
2026-04-18 10:27 48.95803 2.43680 147 ft 14 kts 77°
2026-04-18 10:27 48.95878 2.43765 147 ft 14 kts 25°
2026-04-18 10:27 48.95968 2.43827 147 ft 15 kts 24°
2026-04-18 10:27 48.96064 2.43894 147 ft 16 kts 24°
2026-04-18 10:28 48.96163 2.43970 147 ft 16 kts 37°
2026-04-18 10:28 48.96230 2.44100 147 ft 16 kts 76°
2026-04-18 10:28 48.96253 2.44264 148 ft 16 kts 78°
2026-04-18 10:28 48.96282 2.44428 148 ft 16 kts 64°
2026-04-18 10:29 48.96342 2.44544 149 ft 13 kts 91°
2026-04-18 10:29 48.96334 2.44690 149 ft 14 kts 98°
2026-04-18 10:29 48.96300 2.44766 148 ft 7 kts 181°
2026-04-18 10:29 48.96285 2.44733 148 ft 1 kts 269°